Weather History for La Paz, Mexico

Change the Weather History Date:

Wednesday, December 25, 2013

  Actual Average Record
Temperature  
Mean Temperature 64 °F -  
Max Temperature 75 °F 75 °F 84 °F (2005)
Min Temperature 53 °F 52 °F 44 °F (2007)
Degree Days  
Heating Degree Days 1    
Growing Degree Days 14 (Base 50)    
Moisture  
Dew Point 52 °F    
Average Humidity 62    
Maximum Humidity 88    
Minimum Humidity 43    
Precipitation  
Precipitation 0.00 in - - ()
Sea Level Pressure  
Sea Level Pressure 30.05 in    
Wind  
Wind Speed 6 mph ()    
Max Wind Speed 18 mph    
Max Gust Speed -    
Visibility 11.0 miles    
Events      
Averages and records for this station are not official NWS values.
T = Trace of Precipitation, MM = Missing Value Source: Averaged Metar Reports

Daily Weather History Graph

Daily Weather History Graph

Search for Another Location

Airport:

Trip Planner

Search our weather history database for the weather conditions in past years. The results will help you decide how hot, cold, wet, or windy it might be!

Date:

Astronomy

Dec. 25, 2013 Rise Set
Actual Time 7:02 AM MST 5:41 PM MST
Civil Twilight 6:37 AM MST 6:06 PM MST
Nautical Twilight 6:09 AM MST 6:34 PM MST
Astronomical Twilight 5:41 AM MST 7:02 PM MST
Moon 12:08 AM MST (12/25) 12:15 PM MST (12/25)
Length of Visible Light 11h 28m
Length of Day
10h 39m
Waning Gibbous, 48% of the Moon is Illuminated
Dec 25
Waning Gibbous
Jan 1
New
Jan 7
First Quarter
Jan 15
Full
Jan 23
Last Quarter

Hourly Weather History & Observations

Time (MST) Temp. Dew Point Humidity Pressure Visibility Wind Dir Wind Speed Gust Speed Precip Events Conditions
6:38 AM 48.2 °F 44.6 °F 87% 30.06 in 10.0 mi South 4.6 mph - N/A   Clear
7:44 AM 48.2 °F 44.6 °F 87% 30.17 in 10.0 mi South 4.6 mph - N/A   Clear
7:50 AM 56 °F 51 °F 79% 30.07 in 12 mi Calm Calm - -  
8:41 AM 57.2 °F 53.6 °F 88% 30.10 in 10.0 mi Calm Calm - N/A   Clear
9:51 AM 69.8 °F 51.8 °F 53% 30.12 in 10.0 mi North 11.5 mph - N/A   Clear
10:50 AM 72 °F 54 °F 43% 30.11 in 19 mi NE 8.9 mph - -  
10:54 AM 71.6 °F 50.0 °F 46% 30.13 in 10.0 mi NNE 10.4 mph - N/A   Clear
11:47 AM 73.4 °F 51.8 °F 47% 30.08 in 10.0 mi NNE 11.5 mph - N/A   Clear
12:49 PM 71.6 °F 50.0 °F 46% 30.02 in 10.0 mi North 13.8 mph - N/A   Clear
1:44 PM 73.4 °F 50.0 °F 44% 30.10 in 12.0 mi North 13.8 mph - N/A   Clear
2:40 PM 71.6 °F 53.6 °F 53% 29.99 in 12.0 mi North 18.4 mph - N/A   Clear
3:40 PM 71.6 °F 50.0 °F 46% 29.98 in 12.0 mi North 16.1 mph - N/A   Clear
4:40 PM 71.6 °F 51.8 °F 50% 30.04 in 12.0 mi NNE 10.4 mph - N/A   Clear
4:50 PM 71 °F 54 °F 46% 29.99 in 19 mi NE 11.2 mph - -  
5:40 PM 68.0 °F 53.6 °F 60% 29.99 in 10.0 mi NNE 11.5 mph - N/A   Clear
6:40 PM 66.2 °F 53.6 °F 64% 30.00 in 10.0 mi NE 6.9 mph - N/A   Clear
7:40 PM 64.4 °F 53.6 °F 68% 29.89 in 10.0 mi NE 4.6 mph - N/A   Clear
7:50 PM 64 °F 57 °F 72% 30.00 in 2 mi NE 4.5 mph - -  
8:40 PM 62.6 °F 53.6 °F 72% 30.02 in 10.0 mi NE 4.6 mph - N/A   Clear
9:40 PM 60.8 °F 53.6 °F 77% 30.03 in 10.0 mi NE 3.5 mph - N/A   Clear
10:40 PM 57.2 °F 51.8 °F 82% 30.14 in 10.0 mi Calm Calm - N/A   Clear